Location: ????????
(37.6846°N, 24.0673°E)
Time: 14:32:51
(UTC+00:00)

H-2A R/B - Pass Details

Date: 14 July 2020
Orbit: 577 x 656 km, 98.5° (Epoch: 03 August)

Event Time Altitude Azimuth Distance (km) Brightness Sun altitude
Rises 02:00:17 0° 170° (S) 2,937 5.2 -12.8°
Reaches altitude 10° 02:02:30 10° 172° (S) 2,022 4.4 -12.4°
Maximum altitude 02:06:53 73° 257° (WSW) 659 2.0 -11.8°
Drops below altitude 10° 02:11:13 10° 343° (NNW) 1,989 4.9 -11.1°
Sets 02:13:24 0° 345° (NNW) 2,886 5.8 -10.8°
